ES'HAIL 1

Last updated on Sun Oct 19 2025 00:02:49 GMT+0000 (Coordinated Universal Time)

1 39233U 13044A 25291.27315600 .00000137 00000+0 00000+0 0 9994 2 39233 0.0580 29.5196 0002494 188.1858 293.1513 1.00274311 44208
UTC large
Height (km)
Speed (km/s)
/
Latitude / Longitude
Inclination (degrees)
Orbital Period (minutes)
Azimuth
Elevation
Range (km)
Doppler Factor

Next 0 passes for location: London (51.5072 / 0.1276)

Sorry there are no passes over London.